NOAA 16 DEB, 41300

Orbit data source: Space-Track

NOAA 16 DEB, 41300 is space debris in SSO originally from a launch on Thu, 21 Sep 2000 UTC launched from the Air Force Western Test Range (AFWTR). Debris objects in space refer to the collection of defunct objects orbiting the Earth. Examples of debris include non-operational satellites, rocket bodies, and fragments generated from explosions, collisions, or faulty payload assembly.

Loading next visibility...
Identifier
41300, 2000-055HC
Orbit
SSO
Country
Flag of USUS
Related business
Manufacturer
Unknown
Mission
Spacecraft
Bus & Motor
Unknown
Mass
Unknown
Launch date (UTC)
2000-09-21 (25 years ago)
Launch vehicle
Unknown
Launch site
Air Force Western Test Range (AFWTR)
Object type
Payload
Rocket body
Debris
Shape & HBR
Unknown shape, 0.1 m
Radar Cross Section
Small (<0.1 m²)

Expand to show TLE details & history
Last TLE update: 3 days ago

TLE from 3 days ago
0 NOAA 16 DEB
1 41300U 00055HC  25352.92828282  .00002554  00000-0  13317-2 0  9999
2 41300  98.7104  18.7312 0040023  33.9917 326.3809 14.14973018511907
Epoch: 2025-12-18T22:16Z
TLE epoch observation values (Epoch: 2025-12-18T22:16:43.635Z)
Latitude
-0.00003°
Longitude
-43.22736°
Altitude
821.277 km
Speed
7.455 km/s
True Right ascension
01h 14m 55s
True Declination
0° 00' 00"
Sunlit
Object was in daylight at epoch
Visualization orbit readout
Latitude
Unknown
Longitude
Unknown
Altitude
Unknown
Speed
Unknown
Apparent Right ascension
Unknown
Apparent Declination
Unknown
Sunlit
N/A
Visualization observer readout
Local Sidereal Time
22:03:43
Azimuth
Unknown
Elevation
Unknown
Doppler factor
Unknown
Orbital elements
Apogee altitude
868.457 km
Perigee altitude
810.682 km
Semi-major axis
7,217.706 km
Eccentricity
0.004
Inclination
98.7104°
RAAN
18.7312°
Arg. of periapsis
33.9917°
True anomaly
326.12591°
Mean anomaly
326.3809°
Eccentric anomaly
326.25351°
Mean motion
3.53952 °/min
Orbital period
101.71 mins
BSTAR
0.0013317
Loading maneuver chart data...
Computing Atmospheric mass density...
Loading historical data...
Loading historical data...
Loading historical data...
Loading historical data...
Loading historical data...
Loading historical data...
Loading historical data...

Documentation

Showing up to 5 results
|